User: anonymous   Login
Location: *
(50.2903°S, 172.5375°W)
Time: 11:26:03
(UTC+00:00)
Language:

Resurs 1-4 Rocket - Orbit

View from above orbital plane
View from above orbital plane
View from above satellite
View from above satellite

Ground track
Ground track

The orbit data is extracted from the following two-line orbital elements,

1 25400U 98043G   20022.58928773 -.00000046 +00000-0 -13549-5 0  9999
2 25400 098.5953 321.3297 0010749 047.5853 312.6235 14.25447907120099
Epoch (UTC): 22 January 2020 14:08:34
Eccentricity: 0.0010749
inclination: 98.5953°
perigee height: 799 km
apogee height: 815 km
right ascension of ascending node: 321.3297°
argument of perigee: 47.5853°
revolutions per day: 14.25447907
mean anomaly at epoch: 312.6235°
orbit number at epoch: 12009

The dashed part of the orbit path shows where the satellite is in the earth's shadow,  

DLR